Dublin, Ireland

5:55 PM GMT on February 24, 2017 (GMT +0000)
Dublin International

Weather History for EIDW - February, 2014

Change the Weather History Date:

Friday, February 14, 2014

  Actual Average Record
Temperature  
Mean Temperature 40 °F -  
Max Temperature 46 °F 47 °F 59 °F (1998)
Min Temperature 34 °F 37 °F 24 °F (2001)
Degree Days  
Heating Degree Days 25    
Moisture  
Dew Point 39 °F    
Average Humidity 88    
Maximum Humidity 100    
Minimum Humidity 72    
Precipitation  
Precipitation 0.43 in 0.07 in - ()
Sea Level Pressure  
Sea Level Pressure 28.79 in    
Wind  
Wind Speed 13 mph ()    
Max Wind Speed 37 mph    
Max Gust Speed 52 mph    
Visibility 8.1 miles    
Events Rain , Snow    
Averages and records for this station are not official NWS values.
T = Trace of Precipitation, MM = Missing Value Source: Averaged Metar Reports

Daily Weather History Graph

Daily Weather History Graph

Search for Another Location

Airport or City:

Trip Planner

Search our weather history database for the weather conditions in past years. The results will help you decide how hot, cold, wet, or windy it might be!

Date:

Astronomy

Feb. 14, 2014 Rise Set
Actual Time 7:45 AM GMT 5:33 PM GMT
Civil Twilight 7:09 AM GMT 6:09 PM GMT
Nautical Twilight 6:28 AM GMT 6:50 PM GMT
Astronomical Twilight 5:48 AM GMT 7:31 PM GMT
Moon 5:30 PM GMT (2/14) 7:02 AM GMT (2/14)
Length of Visible Light 11h 00m
Length of Day
9h 47m
Full, 100% of the Moon is Illuminated
Feb 14
Full
Feb 14
Full
Feb 22
Last Quarter
Mar 1
New
Mar 8
First Quarter

Hourly Weather History & Observations

Time (GMT) Temp. Windchill Dew Point Humidity Pressure Visibility Wind Dir Wind Speed Gust Speed Precip Events Conditions
12:00 AM 39 °F - 35 °F 79% 29.32 in 19 mi SW 11.2 mph - -   Partly Cloudy
12:00 AM 39.2 °F 32.5 °F 35.6 °F 87% 29.30 in 6.2 mi SW 10.4 mph - N/A   Mostly Cloudy
12:30 AM 39.2 °F 31.2 °F 33.8 °F 81% 29.30 in 6.2 mi SW 13.8 mph - N/A   Scattered Clouds
1:00 AM 38 °F - 35 °F 82% 29.33 in 19 mi SW 13.4 mph - -   Mostly Cloudy
1:00 AM 37.4 °F 28.9 °F 33.8 °F 87% 29.30 in 6.2 mi SW 13.8 mph - N/A   Mostly Cloudy
1:30 AM 39.2 °F 31.6 °F 33.8 °F 81% 29.30 in 6.2 mi SW 12.7 mph - N/A   Mostly Cloudy
2:00 AM 38 °F - 34 °F 78% 29.32 in 19 mi SW 11.2 mph - -   Scattered Clouds
2:00 AM 37.4 °F 30.3 °F 33.8 °F 87% 29.30 in 6.2 mi SW 10.4 mph - N/A   Mostly Cloudy
2:30 AM 39.2 °F 32.5 °F 33.8 °F 81% 29.27 in 6.2 mi WSW 10.4 mph - N/A   Mostly Cloudy
3:00 AM 39 °F - 33 °F 72% 29.30 in 19 mi SSW 8.9 mph - -   Scattered Clouds
3:00 AM 39.2 °F 33.0 °F 33.8 °F 81% 29.27 in 6.2 mi SW 9.2 mph - N/A   Mostly Cloudy
3:30 AM 39.2 °F 34.2 °F 33.8 °F 81% 29.27 in 6.2 mi SSW 6.9 mph - N/A   Mostly Cloudy
4:00 AM 38 °F - 33 °F 75% 29.27 in 19 mi SSE 4.5 mph - -   Scattered Clouds
4:00 AM 37.4 °F 33.8 °F 33.8 °F 87% 29.24 in 6.2 mi SSE 4.6 mph - N/A   Mostly Cloudy
4:30 AM 37.4 °F 33.8 °F 32.0 °F 81% 29.24 in 6.2 mi SSE 4.6 mph - N/A   Mostly Cloudy
5:00 AM 36 °F - 32 °F 81% 29.26 in 19 mi SE 4.5 mph - -   Scattered Clouds
5:00 AM 35.6 °F 32.8 °F 32.0 °F 87% 29.24 in 6.2 mi SE 3.5 mph - N/A   Mostly Cloudy
5:30 AM 35.6 °F 29.2 °F 32.0 °F 87% 29.24 in 6.2 mi SE 8.1 mph - N/A   Mostly Cloudy
6:00 AM 36 °F - 33 °F 85% 29.23 in 19 mi SE 8.9 mph - -   Overcast
6:00 AM 35.6 °F 29.2 °F 33.8 °F 93% 29.21 in 6.2 mi SE 8.1 mph - N/A   Mostly Cloudy
6:30 AM 39.2 °F 32.5 °F 33.8 °F 81% 29.18 in 6.2 mi SE 10.4 mph - N/A   Mostly Cloudy
7:00 AM 39 °F - 34 °F 75% 29.19 in 19 mi SE 8.9 mph - -   Overcast
7:00 AM 39.2 °F 33.6 °F 33.8 °F 81% 29.18 in 6.2 mi SE 8.1 mph - N/A   Mostly Cloudy
7:30 AM 39.2 °F 33.0 °F 35.6 °F 87% 29.12 in 6.2 mi SE 9.2 mph - N/A   Mostly Cloudy
8:00 AM 40 °F - 36 °F 81% 29.13 in 19 mi SE 17.9 mph - - Rain Light Rain
8:00 AM 39.2 °F 29.8 °F 35.6 °F 87% 29.12 in 6.2 mi SE 18.4 mph - N/A Rain Light Rain
8:30 AM 42.8 °F 34.0 °F 37.4 °F 81% 29.06 in 6.2 mi SE 20.7 mph - N/A   Mostly Cloudy
9:00 AM 41 °F - 35 °F 72% 29.04 in 12 mi SE 26.8 mph - - Rain Light Rain
9:00 AM 41.0 °F 30.2 °F 35.6 °F 81% 29.03 in 6.2 mi SE 27.6 mph - N/A Rain Light Rain
9:30 AM 41.0 °F 30.5 °F 33.8 °F 76% 29.00 in 6.2 mi SE 26.5 mph - N/A Rain Light Rain
10:00 AM 40 °F - 36 °F 80% 28.96 in 8 mi ESE 31.3 mph - - Rain Light Rain
10:00 AM 39.2 °F 27.4 °F 35.6 °F 87% 28.94 in 6.2 mi ESE 29.9 mph 41.4 mph N/A Rain Light Rain
10:30 AM 39.2 °F 26.5 °F 35.6 °F 87% 28.88 in 6.2 mi ESE 35.7 mph 51.8 mph N/A Rain Light Rain
11:00 AM 39 °F - 37 °F 92% 28.85 in 4 mi ESE 31.3 mph - - Rain Light Rain
11:00 AM 39.2 °F 26.8 °F 37.4 °F 93% 28.82 in 4.3 mi ESE 33.4 mph 46.0 mph N/A Rain Light Rain
11:30 AM 39.2 °F 26.3 °F 37.4 °F 93% 28.80 in 3.7 mi ESE 36.8 mph 50.6 mph N/A Rain Light Rain
12:00 PM 39 °F - 38 °F 95% 28.76 in 4 mi ESE 31.3 mph - - Rain Light Rain
12:00 PM 39.2 °F 26.8 °F 37.4 °F 93% 28.74 in 3.7 mi ESE 33.4 mph 49.5 mph N/A Rain Rain
12:30 PM 39.2 °F 27.0 °F 39.2 °F 100% 28.68 in 3.1 mi ESE 32.2 mph 43.7 mph N/A Rain Light Rain
1:00 PM 41 °F - 40 °F 97% 28.66 in 4 mi SE 24.6 mph - - Snow Light Snow
1:00 PM 41.0 °F 30.7 °F 41.0 °F 100% 28.65 in 3.7 mi SE 25.3 mph - N/A Rain Light Rain
1:30 PM 42.8 °F 33.1 °F 42.8 °F 100% 28.56 in 6.2 mi SE 25.3 mph 36.8 mph N/A   Mostly Cloudy
2:00 PM 45 °F - 43 °F 91% 28.54 in 7 mi SE 24.6 mph - - Rain Light Rain
2:00 PM 44.6 °F 35.3 °F 42.8 °F 93% 28.53 in 6.2 mi SE 26.5 mph 38.0 mph N/A   Scattered Clouds
2:30 PM 46.4 °F 39.2 °F 42.8 °F 87% 28.50 in 6.2 mi SE 18.4 mph - N/A   Mostly Cloudy
3:00 PM 46 °F - 45 °F 93% 28.48 in 6 mi SE 17.9 mph - - Rain Light Rain Showers
3:00 PM 46.4 °F 38.7 °F 44.6 °F 93% 28.47 in 6.2 mi SE 20.7 mph - N/A Rain Light Rain Showers
3:30 PM 46.4 °F 39.8 °F 44.6 °F 93% 28.44 in 6.2 mi SSE 16.1 mph - N/A   Mostly Cloudy
4:00 PM 46 °F - 44 °F 90% 28.44 in 4 mi SE 13.4 mph - - Rain Light Rain Showers
4:00 PM 46.4 °F 40.4 °F 44.6 °F 93% 28.41 in 6.2 mi SE 13.8 mph - N/A Rain Light Rain Showers
4:30 PM 46.4 °F 41.1 °F 44.6 °F 93% 28.38 in 5.0 mi SE 11.5 mph - N/A Rain Light Rain Showers
5:00 PM 46 °F - 44 °F 89% 28.39 in 5 mi SSE 8.9 mph - - Rain Light Rain Showers
5:00 PM 46.4 °F 42.9 °F 44.6 °F 93% 28.38 in 5.0 mi South 6.9 mph - N/A Rain Light Rain Showers
5:30 PM 46.4 °F 41.5 °F 44.6 °F 93% 28.35 in 6.2 mi SE 10.4 mph - N/A Rain Light Rain Showers
6:00 PM 46 °F - 43 °F 87% 28.35 in 6 mi SE 11.2 mph - - Rain Light Rain Showers
6:00 PM 46.4 °F 41.5 °F 42.8 °F 87% 28.32 in 6.2 mi SE 10.4 mph - N/A Rain Light Rain Showers
6:30 PM 46.4 °F 42.4 °F 44.6 °F 93% 28.32 in 6.2 mi SE 8.1 mph - N/A Rain Light Rain Showers
7:00 PM 45 °F - 43 °F 91% 28.33 in 8 mi SSE 4.5 mph - - Rain Light Rain Showers
7:00 PM 44.6 °F 42.2 °F 42.8 °F 93% 28.32 in 6.2 mi SSE 4.6 mph - N/A   Mostly Cloudy
7:30 PM 44.6 °F 42.2 °F 42.8 °F 93% 28.32 in 6.2 mi South 4.6 mph - N/A   Mostly Cloudy
8:00 PM 44 °F - 42 °F 89% 28.33 in 16 mi SSW 4.5 mph - -   Scattered Clouds
8:00 PM 44.6 °F 42.2 °F 42.8 °F 93% 28.32 in 6.2 mi SSW 4.6 mph - N/A   Scattered Clouds
8:30 PM 42.8 °F 40.1 °F 41.0 °F 93% 28.29 in 6.2 mi SW 4.6 mph - N/A   Scattered Clouds
9:00 PM 44 °F - 43 °F 95% 28.33 in 16 mi WSW 6.7 mph - -   Partly Cloudy
9:00 PM 44.6 °F 41.4 °F 42.8 °F 93% 28.32 in 6.2 mi WSW 5.8 mph - N/A   Mostly Cloudy
9:30 PM 44.6 °F 40.7 °F 42.8 °F 93% 28.32 in 6.2 mi WSW 6.9 mph - N/A   Mostly Cloudy
10:00 PM 44 °F - 43 °F 94% 28.33 in 16 mi WSW 11.2 mph - -   Mostly Cloudy
10:00 PM 42.8 °F 37.0 °F 42.8 °F 100% 28.32 in 6.2 mi WSW 10.4 mph - N/A   Scattered Clouds
10:30 PM 44.6 °F 38.8 °F 42.8 °F 93% 28.32 in 6.2 mi WSW 11.5 mph - N/A   Light Drizzle
11:00 PM 45 °F - 44 °F 92% 28.35 in 16 mi WSW 13.4 mph - - Rain Light Drizzle
11:00 PM 44.6 °F 38.1 °F 42.8 °F 93% 28.35 in 6.2 mi WSW 13.8 mph - N/A   Mostly Cloudy
11:30 PM 44.6 °F 38.4 °F 42.8 °F 93% 28.35 in 4.3 mi WSW 12.7 mph - N/A   Light Drizzle